This is the latest recevied weather packets stored in our database for station/object OK2JCZ-6. If no packets are shown the sender has not sent any weather packets the latest 10 day(s).
| Time | Temp. | Humidity | Pressure | Rain* | Wind** | Luminosity | Snow |
|---|---|---|---|---|---|---|---|
| 1777533577 | 7.78° C | 30% | 1029.8 hPa | 0 mm | - | - | - |
| 1777532677 | 7.78° C | 29% | 1029.8 hPa | 0 mm | - | - | - |
| 1777532077 | 7.78° C | 29% | 1029.8 hPa | 0 mm | - | - | - |
| 1777530877 | 8.33° C | 30% | 1029.8 hPa | 0 mm | - | - | - |
| 1777530577 | 7.22° C | 31% | 1029.7 hPa | 0 mm | - | - | - |
| 1777530277 | 7.22° C | 33% | 1029.8 hPa | 0 mm | - | - | - |
| 1777529677 | 7.22° C | 33% | 1029.8 hPa | 0 mm | - | - | - |
| 1777528477 | 7.78° C | 33% | 1029.7 hPa | 0 mm | - | - | - |
| 1777528177 | 6.67° C | 35% | 1029.7 hPa | 0 mm | - | - | - |
| 1777527877 | 6.67° C | 36% | 1029.7 hPa | 0 mm | - | - | - |
| 1777526977 | 7.22° C | 37% | 1029.6 hPa | 0 mm | - | - | - |
| 1777526077 | 7.22° C | 39% | 1029.5 hPa | 0 mm | - | - | - |
| 1777525177 | 3.89° C | 43% | 1029.6 hPa | 0 mm | - | - | - |
| 1777523977 | 0° C | 45% | 1029.6 hPa | 0 mm | - | - | - |
| 1777523677 | 0° C | 45% | 1029.6 hPa | 0 mm | - | - | - |
| 1777523377 | -1.67° C | 45% | 1029.6 hPa | 0 mm | - | - | - |
| 1777523077 | -1.67° C | 45% | 1029.6 hPa | 0 mm | - | - | - |
| 1777522777 | -2.78° C | 45% | 1029.6 hPa | 0 mm | - | - | - |
| 1777522477 | -2.78° C | 46% | 1029.5 hPa | 0 mm | - | - | - |
| 1777522181 | -3.89° C | 47% | 1029.4 hPa | 0 mm | - | - | - |
| 1777521877 | -3.89° C | 50% | 1029.4 hPa | 0 mm | - | - | - |
| 1777521577 | -5° C | 53% | 1029.4 hPa | 0 mm | - | - | - |
| 1777521277 | -5° C | 53% | 1029.5 hPa | 0 mm | - | - | - |
| 1777520677 | -5° C | 50% | 1029.4 hPa | 0 mm | - | - | - |
| 1777519477 | -4.44° C | 49% | 1029.3 hPa | 0 mm | - | - | - |
* Rain latest hour (hover to see other rain measurements)
** Current wind speed in m/s (hover to see current wind gust speed)